User: anonymous   Login
Location: Unspecified
(0.0000°N, 0.0000°E)
Time: 22:49:12
(UTC+00:00)
Language:

PAKSAT 1R - Orbit

View from above orbital plane
View from above orbital plane
View from above satellite
View from above satellite

Ground track
Ground track

The orbit data is extracted from the following two-line orbital elements,

1 37779U 11042A   17179.52480003 +.00000135 +00000-0 +00000-0 0  9997
2 37779 000.0445 134.8957 0002887 305.2840 063.3933 01.00274152021633
Epoch (UTC): 28 June 2017 12:35:42
Eccentricity: 0.0002887
inclination: 0.0445°
perigee height: 35773 km
apogee height: 35798 km
right ascension of ascending node: 134.8957°
argument of perigee: 305.2840°
revolutions per day: 1.00274152
mean anomaly at epoch: 63.3933°
orbit number at epoch: 2163

The dashed part of the orbit path shows where the satellite is in the earth's shadow,  

DLR